Regional Weather Roundup
Issued by NWS

Home | Current Version | Previous Version | Graphics & Text | Print | Product List | Glossary On
Versions: 1 2 3 4 5 6 7 8 9 10 11 12 13 14 15 16 17 18 19 20 21 22 23 24 25 26 27 28 29 30 31 32 33 34 35 36 37 38 39 40 41 42 43 44 45 46 47 48 49 50
000
ASUS43 KOAX 161102
RWRNE

WEATHER ROUNDUP FOR NEBRASKA
NATIONAL WEATHER SERVICE OMAHA NE
600 AM CDT TUE SEP 16 2014

NOTES: SATELLITE DATA IS BEING USED TO AUGMENT CLOUD COVER ABOVE
       12000 FEET.
       "FAIR" INDICATES FEW OR NO CLOUDS BELOW 12,000 FEET WITH NO
       SIGNIFICANT WEATHER AND/OR OBSTRUCTIONS TO VISIBILITY.

  * THESE STATIONS DO NOT REPORT WEATHER SUCH AS RAIN...SNOW OR FOG.

NEZ001>004-019>022-054>056-161200-
NEBRASKA PANHANDLE

CITY           SKY/WX    TMP DP  RH WIND       PRES   REMARKS
SCOTTSBLUFF    MOCLDY    52  51  97 E6        30.08F
ALLIANCE       PTCLDY    51  50  96 VRB5      30.08F
CHADRON        CLEAR     49  46  90 S3        30.05F
KIMBALL        PTCLDY    47  46  97 N3        30.12S
SIDNEY         PTCLDY    52  49  89 SW8       30.13S
$$

NEZ057>060-069>072-079>082-161200-
SOUTHWEST NEBRASKA

CITY           SKY/WX    TMP DP  RH WIND       PRES   REMARKS
NORTH PLATTE   MOCLDY    50  43  77 S18       30.17F
IMPERIAL       PTCLDY    51  48  89 SE7       30.16F
LEXINGTON      CLEAR     47  44  89 S9        30.21S
MCCOOK         PTCLDY    50  44  80 S7        30.20F
OGALLALA       PTCLDY    51  48  88 S6        30.13F
$$

NEZ005>010-023>029-035>040-094-161200-
NORTH CENTRAL NEBRASKA

CITY           SKY/WX    TMP DP  RH WIND       PRES   REMARKS
VALENTINE      CLEAR     50  42  74 S10       30.10F
AINSWORTH      CLEAR     47  42  83 S10       30.12F
BROKEN BOW     CLEAR     45  42  89 S9        30.19F
O`NEILL        CLEAR     45  43  92 S8        30.18F
ORD            CLEAR     42  40  92 E5        30.19F
THEDFORD       CLEAR     51  43  75 S13       30.13F
$$

NEZ041-046>049-061>064-073>077-083>087-161200-
SOUTH CENTRAL NEBRASKA

CITY           SKY/WX    TMP DP  RH WIND       PRES   REMARKS
GRAND ISLAND   CLEAR     46  42  86 S7        30.23F
AURORA         CLEAR     46  42  88 S6        30.23F
HASTINGS       CLEAR     45  41  86 S7        30.22F
HEBRON         CLEAR     40  38  93 CALM      30.25S
HOLDREGE       CLEAR     45  42  90 CALM      30.21F
KEARNEY *      CLEAR     45  41  87 S5        30.22F
YORK           MIX PCPN  43  41  93 S6        30.24F
$$

NEZ011>018-030>034-042>045-161200-
NORTHEAST NEBRASKA

CITY           SKY/WX    TMP DP  RH WIND       PRES   REMARKS
NORFOLK        CLEAR     45  42  89 S10       30.22F
ALBION         CLEAR     42  39  89 SE5       30.22F
BLAIR          CLEAR     46  43  92 CALM      30.23F
COLUMBUS *     CLEAR     39  37  93 CALM      30.24F
FREMONT        CLEAR     42  42  97 CALM      30.24F
TEKAMAH        FOG       41  40  96 S3        30.24F VSB 1/2
WAYNE          CLEAR     35  35  96 CALM      30.22F
$$

NEZ050>053-065>068-078-088>093-161200-
SOUTHEAST NEBRASKA

CITY           SKY/WX    TMP DP  RH WIND       PRES   REMARKS
LINCOLN        CLEAR     40  38  93 CALM      30.26S
OMAHA EPPLEY   PTCLDY    43  42  97 CALM      30.26F FOG
BEATRICE       CLEAR     40  39  97 CALM      30.25S
FALLS CITY     CLEAR     43  42  97 CALM      30.25F
NEBRASKA CITY  CLEAR     44  41  89 CALM      30.25S
PLATTSMOUTH    CLEAR     43  41  91 CALM      30.25S
$$

NEZ044-045-051>053-067-161200-
OMAHA AREA

CITY           SKY/WX    TMP DP  RH WIND       PRES   REMARKS
OMAHA EPPLEY   PTCLDY    43  42  97 CALM      30.26F FOG
BLAIR          CLEAR     46  43  92 CALM      30.23F
FREMONT        CLEAR     42  42  97 CALM      30.24F
MILLARD        CLEAR     43  42  97 CALM      30.24F FOG
OFFUTT AFB     FOG       42  42 100 CALM      30.24F VSB 3/4
PLATTSMOUTH    CLEAR     43  41  91 CALM      30.25S
WAHOO          FAIR      40  38  92 CALM      30.24F
$$



USA.gov is the U.S. government's official web portal to all federal, state and local government web resources and services.